This demonstration page uses our WeatherBlox Daily Observations layout. Learn more.

Left ArrowRight Arrow

53.62937, 11.41316

Hourly Observations for January 15, 2022

Temp ( °F °C ) Dew Point ( °F °C ) Humidity (%) Winds ( mph kmh ) Pressure ( in mb ) Visibility ( mi km ) Precip ( " mm )
12:20 am 00:20 Mostly Clear 36 2 34 1 93 93 W 5 7 30.45 1031 30 48 N/A
12:50 am 00:50 Mostly Clear 36 2 34 1 93 93 W 6 9 30.45 1031 30 48 N/A
1:20 am 01:20 Mostly Clear 36 2 34 1 93 93 W 6 9 30.42 1030 30 48 N/A
1:50 am 01:50 Mostly Clear 36 2 34 1 93 93 W 5 7 30.42 1030 30 48 N/A
2:20 am 02:20 Mostly Clear 34 1 34 1 100 100 W 5 7 30.42 1030 30 48 N/A
2:50 am 02:50 Mostly Clear 34 1 32 0 93 93 W 5 7 30.42 1030 30 48 N/A
3:20 am 03:20 Mostly Clear 34 1 32 0 93 93 W 6 9 30.42 1030 30 48 N/A
4:20 am 04:20 Mostly Clear 34 1 32 0 93 93 W 6 9 30.39 1029 30 48 N/A
4:50 am 04:50 Mostly Clear 34 1 32 0 93 93 W 5 7 30.39 1029 30 48 N/A
5:20 am 05:20 Mostly Clear 34 1 32 0 93 93 W 6 9 30.39 1029 30 48 N/A
5:50 am 05:50 Mostly Clear 34 1 32 0 93 93 W 5 7 30.39 1029 6 9 N/A
6:20 am 06:20 Mostly Clear 30 -1 30 -1 100 100 VRB 2 4 30.39 1029 30 48 N/A
6:50 am 06:50 Mostly Clear 30 -1 28 -2 93 93 VRB 1 2 30.39 1029 1 2 N/A
7:20 am 07:20 Mostly Cloudy 30 -1 30 -1 100 100 VRB 2 4 30.39 1029 30 48 N/A
7:50 am 07:50 Partly Cloudy 30 -1 30 -1 100 100 VRB 2 4 30.39 1029 30 48 N/A
8:20 am 08:20 Partly Cloudy 30 -1 30 -1 100 100 VRB 2 4 30.39 1029 1 2 N/A
8:50 am 08:50 Partly Cloudy 30 -1 30 -1 100 100 WSW 3 6 30.39 1029 30 48 N/A
9:20 am 09:20 Partly Cloudy 32 0 32 0 100 100 VRB 2 4 30.39 1029 30 48 N/A
9:50 am 09:50 Mostly Sunny 32 0 32 0 100 100 SW 3 6 30.39 1029 30 48 N/A
10:20 am 10:20 Mostly Sunny 36 2 32 0 87 87 SW 3 6 30.39 1029 30 48 N/A
10:50 am 10:50 Mostly Sunny 37 3 32 0 81 81 SW 3 6 30.39 1029 30 48 N/A
11:20 am 11:20 Mostly Sunny 39 4 34 1 81 81 VRB 2 4 30.39 1029 30 48 N/A
12:20 pm 12:20 Partly Cloudy 39 4 34 1 81 81 VRB 2 4 30.39 1029 30 48 N/A
12:50 pm 12:50 Mostly Sunny 41 5 34 1 76 76 VRB 2 4 30.36 1028 30 48 N/A
1:20 pm 13:20 Mostly Sunny 43 6 34 1 71 71 VRB 2 4 30.36 1028 7 11 N/A
1:50 pm 13:50 Mostly Sunny 43 6 34 1 71 71 WSW 3 6 30.36 1028 30 48 N/A
2:20 pm 14:20 Mostly Sunny 41 5 34 1 76 76 VRB 3 6 30.36 1028 30 48 N/A
2:50 pm 14:50 Mostly Sunny 41 5 32 0 70 70 VRB 3 6 30.33 1027 30 48 N/A
3:20 pm 15:20 Mostly Sunny 41 5 34 1 76 76 S 3 6 30.33 1027 30 48 N/A
3:50 pm 15:50 Partly Cloudy 41 5 34 1 76 76 SSW 3 6 30.33 1027 30 48 N/A
4:20 pm 16:20 Mostly Cloudy 39 4 34 1 81 81 VRB 3 6 30.33 1027 30 48 N/A
4:50 pm 16:50 Cloudy 39 4 32 0 75 75 VRB 2 4 30.30 1026 30 48 N/A
5:20 pm 17:20 Mostly Cloudy 39 4 32 0 75 75 S 3 6 30.30 1026 30 48 N/A
5:50 pm 17:50 Cloudy 37 3 32 0 81 81 VRB 1 2 30.30 1026 30 48 N/A
6:20 pm 18:20 Cloudy 39 4 34 1 81 81 VRB 2 4 30.30 1026 30 48 N/A
6:50 pm 18:50 Cloudy 39 4 34 1 81 81 S 3 6 30.30 1026 30 48 N/A
7:20 pm 19:20 Cloudy 39 4 34 1 81 81 S 3 6 30.27 1025 30 48 N/A
7:50 pm 19:50 Mostly Cloudy 39 4 34 1 81 81 S 3 6 30.27 1025 30 48 N/A
8:20 pm 20:20 Mostly Cloudy 37 3 34 1 87 87 VRB 2 4 30.27 1025 30 48 N/A
8:50 pm 20:50 Cloudy 37 3 34 1 87 87 S 5 7 30.27 1025 30 48 N/A
9:20 pm 21:20 Mostly Cloudy 37 3 34 1 87 87 S 3 6 30.24 1024 30 48 N/A
9:50 pm 21:50 Partly Cloudy 36 2 34 1 93 93 VRB 2 4 30.24 1024 30 48 N/A
10:20 pm 22:20 Mostly Clear 36 2 32 0 87 87 VRB 2 4 30.24 1024 30 48 N/A
10:50 pm 22:50 Mostly Cloudy 36 2 32 0 87 87 S 3 6 30.24 1024 30 48 N/A
11:20 pm 23:20 Mostly Cloudy 36 2 32 0 87 87 S 3 6 30.21 1023 30 48 N/A
11:50 pm 23:50 Mostly Cloudy 36 2 32 0 87 87 S 3 6 30.21 1023 30 48 N/A

Powered by AerisWeather